Tracking 31027 objects as of 19-Jul-2025
HD Live streaming from Space Station
objects crossing your sky now

STARLINK-11415

Track STARLINK-11415 now!
10-day predictions
STARLINK-11415 is classified as:


NORAD ID: 62592
Int'l Code: 2025-008F
Perigee: 361.5 km
Apogee: 365.4 km
Inclination: 43.0 °
Period: 91.7 minutes
Semi major axis: 6734 km
RCS: Unknown
Launch date: January 13, 2025
Source: United States (US)
Launch site: AIR FORCE EASTERN TEST RANGE (AFETR)
Your satellite tracking list
FENGYUN 1C DEB
Track 1 satellite(s)




NASA's NSSDC Master Catalog

Two Line Element Set (TLE):
1 62592U 25008F   25199.08950377  .00185460  00000-0  14132-2 0  9991
2 62592  43.0027 100.6235 0002861 275.3389  84.7153 15.70898912 30329
Source of the keplerian elements: AFSPC